Location: Charbonni�res
(45.9952°N, 2.9982°E)
Time: 18:12:58
(UTC+00:00)

PSLV R/B - Pass Details

Date: 29 November 2020
Orbit: 502 x 579 km, 97.8° (Epoch: 17 January)

Event Time Altitude Azimuth Distance (km) Brightness Sun altitude
Rises 05:31:45 0° 15° (NNE) 2,713 7.4 -16.1°
Reaches altitude 10° 05:33:55 10° 18° (NNE) 1,803 6.5 -15.7°
Maximum altitude 05:37:47 69° 102° (ESE) 567 4.0 -15.1°
Drops below altitude 10° 05:41:32 10° 186° (S) 1,745 6.5 -14.5°
Sets 05:43:36 0° 189° (S) 2,617 7.4 -14.1°
